This is the latest recevied weather packets stored in our database for station/object MB7UIK. If no packets are shown the sender has not sent any weather packets the latest 1 day(s).
| Time | Temp. | Humidity | Pressure | Rain* | Wind** | Luminosity | Snow |
|---|---|---|---|---|---|---|---|
| 1778043045 | 10° C | 100% | 1010.9 hPa | 0 mm | 0.89 m/s, 341° | - | - |
| 1778042985 | 10° C | 100% | 1010.9 hPa | 0 mm | 0.45 m/s, 305° | - | - |
| 1778042925 | 10° C | 100% | 1010.9 hPa | 0 mm | 0.89 m/s, 334° | - | - |
| 1778042865 | 10° C | 100% | 1010.9 hPa | 0 mm | 1.34 m/s, 315° | - | - |
| 1778042831 | 10° C | 100% | 1010.9 hPa | 0 mm | 1.34 m/s, 315° | - | - |
| 1778042805 | 10° C | 100% | 1010.9 hPa | 0 mm | 0.89 m/s, 333° | - | - |
| 1778042745 | 10° C | 100% | 1010.9 hPa | 0 mm | 1.34 m/s, 328° | - | - |
| 1778042685 | 10° C | 100% | 1010.9 hPa | 0 mm | 0.89 m/s, 347° | - | - |
| 1778042624 | 10° C | 100% | 1010.9 hPa | 0 mm | 0.89 m/s, 344° | - | - |
| 1778042565 | 10° C | 100% | 1010.9 hPa | 0 mm | 0.45 m/s, 5° | - | - |
| 1778042531 | 10° C | 100% | 1010.9 hPa | 0 mm | 0.45 m/s, 5° | - | - |
| 1778042505 | 10° C | 100% | 1010.9 hPa | 0 mm | 1.34 m/s, 331° | - | - |
| 1778042445 | 10° C | 100% | 1010.8 hPa | 0 mm | 1.34 m/s, 360° | - | - |
| 1778042385 | 10° C | 100% | 1010.8 hPa | 0 mm | 0.45 m/s, 325° | - | - |
| 1778042326 | 10° C | 100% | 1010.8 hPa | 0 mm | 0.45 m/s, 350° | - | - |
| 1778042266 | 10° C | 100% | 1010.8 hPa | 0 mm | 0.89 m/s, 20° | - | - |
| 1778042232 | 10° C | 100% | 1010.8 hPa | 0 mm | 0.89 m/s, 20° | - | - |
| 1778042206 | 10° C | 100% | 1010.8 hPa | 0 mm | 0.45 m/s, 331° | - | - |
| 1778042146 | 10° C | 100% | 1010.8 hPa | 0 mm | 0.89 m/s, 331° | - | - |
| 1778042086 | 10° C | 100% | 1010.9 hPa | 0 mm | 1.34 m/s, 336° | - | - |
| 1778042026 | 10° C | 100% | 1010.8 hPa | 0 mm | 0.89 m/s, 348° | - | - |
| 1778041966 | 10° C | 100% | 1010.9 hPa | 0 mm | 0.89 m/s, 5° | - | - |
| 1778041932 | 10° C | 100% | 1010.9 hPa | 0 mm | 0.89 m/s, 5° | - | - |
| 1778041905 | 10° C | 100% | 1010.9 hPa | 0 mm | 0.89 m/s, 355° | - | - |
| 1778041845 | 10° C | 100% | 1010.8 hPa | 0 mm | 0.89 m/s, 360° | - | - |
* Rain latest hour (hover to see other rain measurements)
** Current wind speed in m/s (hover to see current wind gust speed)